QPF
0.00 0.00 0.00 0.00 0.00 0.00 0.00 0.00 0.00 0.00 0.00 0.00 0.00 0.00 0.00 0.00 0.00 0.00 0.00 0.00 0.00 0.00 0.00 0.00 0.00 0.00 0.00 0.00 0.00 0.00 0.00 0.00 0.00 0.00 0.00 0.00 0.00 0.00 0.00 0.00 0.01 0.03 0.03 0.12
0.00 0.00 0.00 0.00 0.00 0.00 0.00 0.00 0.00 0.00 0.00 0.00 0.00 0.00 0.00 0.00 0.00 0.00 0.00 0.00 0.00 0.00 0.00 0.00 0.00 0.00 0.00 0.00 0.00 0.00 0.00 0.00 0.00 0.00 0.00 0.00 0.00 0.00 0.00 0.00 0.00 0.00 0.01 0.05
0.00 0.00 0.00 0.00 0.00 0.00 0.00 0.00 0.00 0.00 0.00 0.00 0.00 0.00 0.00 0.00 0.00 0.00 0.00 0.00 0.00 0.00 0.00 0.00 0.00 0.00 0.00 0.00 0.00 0.00 0.00 0.00 0.00 0.00 0.00 0.00 0.00 0.00 0.00 0.00 0.00 0.00 0.00 0.02
0.00 0.00 0.00 0.00 0.00 0.00 0.00 0.00 0.00 0.00 0.00 0.00 0.00 0.00 0.00 0.00 0.00 0.00 0.00 0.00 0.00 0.00 0.00 0.00 0.00 0.00 0.00 0.00 0.00 0.00 0.00 0.00 0.00 0.00 0.00 0.00 0.00 0.00 0.00 0.00 0.00 0.00 0.00 0.00
0.00 0.00 0.00 0.00 0.00 0.00 0.00 0.00 0.00 0.00 0.00 0.00 0.00 0.00 0.00 0.00 0.00 0.00 0.00 0.00 0.00 0.00 0.00 0.00 0.00 0.00 0.00 0.00 0.00 0.00 0.00 0.00 0.00 0.00 0.00 0.00 0.00 0.00 0.00 0.00 0.00 0.00 0.00 0.00
0.00 0.00 0.00 0.00 0.00 0.00 0.00 0.00 0.00 0.00 0.00 0.00 0.00 0.00 0.00 0.00 0.00 0.00 0.00 0.00 0.00 0.00 0.00 0.00 0.00 0.00 0.00 0.00 0.00 0.00 0.00 0.00 0.00 0.00 0.00 0.00 0.00 0.00 0.00 0.00 0.00 0.00 0.00 0.00
0.00 0.00 0.00 0.00 0.00 0.00 0.00 0.00 0.00 0.00 0.00 0.00 0.00 0.00 0.00 0.00 0.00 0.00 0.00 0.00 0.00 0.00 0.00 0.00 0.00 0.00 0.00 0.00 0.00 0.00 0.00 0.00 0.00 0.00 0.00 0.00 0.00 0.00 0.00 0.00 0.00 0.00 0.00 0.00
0.00 0.00 0.00 0.00 0.00 0.00 0.00 0.00 0.00 0.00 0.00 0.00 0.00 0.00 0.00 0.00 0.00 0.00 0.00 0.00 0.00 0.00 0.00 0.00 0.00 0.00 0.00 0.00 0.00 0.00 0.00 0.00 0.00 0.00 0.00 0.00 0.00 0.00 0.00 0.00 0.00 0.00 0.00 0.00
0.00 0.00 0.00 0.00 0.00 0.00 0.00 0.00 0.00 0.00 0.00 0.00 0.00 0.00 0.00 0.00 0.00 0.00 0.00 0.00 0.00 0.00 0.00 0.00 0.00 0.00 0.00 0.00 0.00 0.00 0.00 0.00 0.00 0.00 0.00 0.00 0.00 0.00 0.00 0.00 0.00 0.00 0.00 0.00
0.00 0.00 0.00 0.00 0.00 0.00 0.00 0.00 0.00 0.00 0.00 0.00 0.00 0.00 0.00 0.00 0.00 0.00 0.00 0.00 0.00 0.00 0.00 0.00 0.00 0.00 0.00 0.00 0.00 0.00 0.00 0.00 0.00 0.00 0.00 0.00 0.00 0.00 0.00 0.00 0.00 0.00 0.00 0.00
0.00 0.00 0.00 0.00 0.00 0.00 0.00 0.00 0.00 0.00 0.00 0.00 0.00 0.00 0.00 0.00 0.00 0.00 0.00 0.00 0.00 0.00 0.00 0.00 0.00 0.00 0.00 0.00 0.00 0.00 0.00 0.00 0.00 0.00 0.00 0.00 0.00 0.00 0.00 0.00 0.00 0.00 0.00 0.00
0.00 0.00 0.00 0.00 0.00 0.00 0.00 0.00 0.00 0.00 0.00 0.00 0.00 0.00 0.00 0.00 0.00 0.00 0.00 0.00 0.00 0.00 0.00 0.00 0.00 0.00 0.00 0.00 0.00 0.00 0.00 0.00 0.00 0.00 0.00 0.00 0.00 0.00 0.00 0.00 0.00 0.00 0.00 0.00
0.00 0.00 0.00 0.00 0.00 0.00 0.00 0.00 0.00 0.00 0.00 0.00 0.00 0.00 0.00 0.00 0.00 0.00 0.00 0.00 0.00 0.00 0.00 0.00 0.00 0.00 0.00 0.00 0.00 0.00 0.00 0.00 0.00 0.00 0.00 0.00 0.00 0.00 0.00 0.00 0.00 0.00 0.00 0.00
0.00 0.00 0.00 0.00 0.00 0.00 0.00 0.00 0.00 0.00 0.00 0.00 0.00 0.00 0.00 0.00 0.00 0.00 0.00 0.00 0.00 0.00 0.00 0.00 0.00 0.00 0.00 0.00 0.00 0.00 0.00 0.00 0.00 0.00 0.00 0.00 0.00 0.00 0.00 0.00 0.00 0.00 0.00 0.00
0.00 0.00 0.00 0.00 0.00 0.00 0.00 0.00 0.00 0.00 0.00 0.00 0.00 0.00 0.00 0.00 0.00 0.00 0.00 0.00 0.00 0.00 0.00 0.00 0.00 0.00 0.00 0.00 0.00 0.00 0.00 0.00 0.00 0.00 0.00 0.00 0.00 0.00 0.00 0.00 0.00 0.00 0.00 0.00
0.00 0.00 0.00 0.00 0.00 0.00 0.00 0.00 0.00 0.00 0.00 0.00 0.00 0.00 0.00 0.00 0.00 0.00 0.00 0.00 0.00 0.00 0.00 0.00 0.00 0.00 0.00 0.00 0.00 0.00 0.00 0.00 0.00 0.00 0.00 0.00 0.00 0.00 0.00 0.00 0.00 0.00 0.00 0.00
0.00 0.00 0.00 0.00 0.00 0.00 0.00 0.00 0.00 0.00 0.00 0.00 0.00 0.00 0.00 0.00 0.00 0.00 0.00 0.00 0.00 0.00 0.00 0.00 0.00 0.00 0.00 0.00 0.00 0.00 0.00 0.00 0.00 0.00 0.00 0.00 0.00 0.00 0.00 0.00 0.00 0.00 0.00 0.00
0.00 0.00 0.00 0.00 0.00 0.00 0.00 0.00 0.00 0.00 0.00 0.00 0.00 0.00 0.00 0.00 0.00 0.00 0.00 0.00 0.00 0.00 0.00 0.00 0.00 0.00 0.00 0.00 0.00 0.00 0.00 0.00 0.00 0.00 0.00 0.00 0.00 0.00 0.00 0.00 0.00 0.00 0.00 0.00
0.00 0.00 0.00 0.00 0.00 0.00 0.00 0.00 0.00 0.00 0.00 0.00 0.00 0.00 0.00 0.00 0.00 0.00 0.00 0.00 0.00 0.00 0.00 0.00 0.00 0.00 0.00 0.00 0.00 0.00 0.00 0.00 0.00 0.00 0.00 0.00 0.00 0.00 0.00 0.00 0.00 0.00 0.00 0.00
0.00 0.00 0.00 0.00 0.00 0.00 0.00 0.00 0.00 0.00 0.00 0.00 0.00 0.00 0.00 0.00 0.00 0.00 0.00 0.00 0.00 0.00 0.00 0.00 0.00 0.00 0.00 0.00 0.00 0.00 0.00 0.00 0.00 0.00 0.00 0.00 0.00 0.00 0.00 0.00 0.00 0.00 0.00 0.00
0.00 0.00 0.00 0.00 0.00 0.00 0.00 0.00 0.00 0.00 0.00 0.00 0.00 0.00 0.00 0.00 0.00 0.00 0.00 0.00 0.00 0.00 0.00 0.00 0.00 0.00 0.00 0.00 0.00 0.00 0.00 0.00 0.00 0.00 0.00 0.00 0.00 0.00 0.00 0.00 0.00 0.00 0.00 0.00
0.00 0.00 0.00 0.00 0.00 0.00 0.00 0.00 0.00 0.00 0.00 0.00 0.00 0.00 0.00 0.00 0.00 0.00 0.00 0.00 0.00 0.00 0.00 0.00 0.00 0.00 0.00 0.00 0.00 0.00 0.00 0.00 0.00 0.00 0.00 0.00 0.00 0.00 0.00 0.00 0.00 0.00 0.00 0.00
0.00 0.00 0.00 0.00 0.00 0.00 0.00 0.00 0.00 0.00 0.00 0.00 0.00 0.00 0.00 0.00 0.00 0.00 0.00 0.00 0.00 0.00 0.00 0.00 0.00 0.00 0.00 0.00 0.00 0.00 0.00 0.00 0.00 0.00 0.00 0.00 0.00 0.00 0.00 0.00 0.00 0.00 0.00 0.00
0.00 0.00 0.00 0.00 0.00 0.00 0.00 0.00 0.00 0.00 0.00 0.00 0.00 0.00 0.00 0.00 0.00 0.00 0.00 0.00 0.00 0.00 0.00 0.00 0.00 0.00 0.00 0.00 0.00 0.00 0.00 0.00 0.00 0.00 0.00 0.00 0.00 0.00 0.00 0.00 0.00 0.00 0.00 0.00
0.00 0.00 0.00 0.00 0.00 0.00 0.00 0.00 0.00 0.00 0.00 0.00 0.00 0.00 0.00 0.00 0.00 0.00 0.00 0.00 0.00 0.00 0.00 0.00 0.00 0.00 0.00 0.00 0.00 0.00 0.00 0.00 0.00 0.00 0.00 0.00 0.00 0.00 0.00 0.00 0.00 0.00 0.00 0.00
0.00 0.00 0.00 0.00 0.00 0.00 0.00 0.00 0.00 0.00 0.00 0.00 0.00 0.00 0.00 0.00 0.00 0.00 0.00 0.00 0.00 0.00 0.00 0.00 0.00 0.00 0.00 0.00 0.00 0.00 0.00 0.00 0.00 0.00 0.00 0.00 0.00 0.00 0.00 0.00 0.00 0.00 0.00 0.00
MSLP
1018.07 1018.54 1019.61 1019.81 1019.70 1019.46 1019.21 1019.01 1019.20 1018.90 1019.16 1019.47 1018.48 1017.61 1016.74 1016.28 1016.58 1016.74 1016.86 1016.82 1016.97 1017.07 1017.51 1018.08 1018.60 1019.03 1019.45 1019.48 1019.53 1019.70 1019.72 1019.64 1019.41 1019.10 1018.85 1018.61 1018.26 1017.79 1017.37 1017.03 1016.04 1015.14 1013.97 1014.36
1019.11 1020.02 1020.81 1020.78 1020.48 1020.38 1020.16 1019.73 1019.98 1019.83 1019.75 1020.00 1018.82 1017.70 1016.76 1016.16 1016.20 1016.46 1016.72 1016.97 1017.03 1017.21 1017.32 1017.74 1018.26 1018.74 1019.19 1019.49 1019.63 1019.66 1019.78 1019.82 1019.64 1019.31 1018.92 1018.93 1018.58 1017.95 1017.38 1017.32 1016.83 1015.80 1014.28 1014.77
1020.12 1021.41 1021.41 1021.34 1021.13 1021.13 1021.06 1021.11 1021.17 1021.52 1020.63 1019.62 1019.46 1017.60 1016.26 1015.95 1016.09 1016.26 1016.47 1016.75 1016.85 1016.93 1017.23 1017.70 1018.28 1018.71 1019.07 1019.48 1019.69 1019.70 1019.80 1019.87 1019.71 1019.49 1019.16 1018.81 1018.45 1018.08 1017.71 1017.48 1017.30 1016.82 1015.85 1015.54
1021.44 1022.06 1021.95 1021.91 1021.84 1022.07 1022.18 1022.50 1022.27 1021.99 1021.79 1021.11 1020.11 1018.62 1016.42 1015.88 1015.75 1015.87 1016.02 1016.37 1016.63 1016.81 1017.08 1017.52 1018.11 1018.74 1019.26 1019.67 1019.84 1019.84 1019.80 1019.80 1019.67 1019.53 1019.34 1019.07 1019.12 1019.05 1019.24 1018.66 1018.17 1017.77 1016.92 1016.43
1022.39 1022.59 1022.61 1022.54 1022.86 1022.83 1023.00 1023.18 1023.18 1022.75 1022.56 1022.15 1020.63 1019.98 1016.22 1015.70 1015.47 1015.55 1015.68 1016.08 1016.38 1016.71 1017.18 1017.67 1018.19 1018.83 1019.33 1019.76 1020.10 1019.99 1019.89 1019.71 1019.86 1019.68 1019.50 1019.40 1019.19 1019.06 1018.97 1018.43 1018.58 1018.38 1017.85 1017.07
1022.82 1023.32 1023.41 1023.54 1023.44 1023.41 1023.43 1023.46 1023.63 1023.28 1023.19 1023.04 1021.41 1020.73 1016.59 1015.40 1015.07 1015.18 1015.38 1015.72 1016.11 1016.55 1017.15 1017.56 1018.14 1018.93 1019.39 1019.78 1020.17 1020.21 1020.08 1019.93 1019.96 1019.95 1019.88 1019.70 1019.50 1018.98 1018.36 1018.95 1019.04 1018.73 1018.34 1017.86
1023.16 1023.62 1024.01 1024.12 1023.91 1023.85 1023.77 1023.98 1024.16 1024.32 1024.02 1023.18 1021.82 1020.78 1016.48 1015.03 1014.76 1014.98 1015.24 1015.58 1016.02 1016.47 1017.04 1017.48 1018.08 1018.87 1019.50 1019.92 1020.30 1020.31 1020.25 1020.15 1020.09 1020.15 1020.12 1019.96 1019.58 1019.42 1018.98 1018.90 1018.96 1018.99 1018.97 1018.50
1023.47 1024.07 1024.42 1024.65 1024.60 1024.48 1024.33 1024.63 1025.01 1025.47 1025.38 1024.05 1022.06 1019.75 1016.12 1015.07 1014.91 1015.17 1015.27 1015.60 1016.04 1016.52 1016.99 1017.47 1018.15 1018.90 1019.48 1019.96 1020.37 1020.37 1020.34 1020.33 1020.32 1020.39 1020.33 1020.23 1020.01 1019.53 1019.17 1019.13 1019.06 1019.20 1019.19 1018.75
1023.62 1024.49 1024.91 1025.08 1025.08 1025.18 1024.90 1025.00 1025.17 1025.46 1026.07 1024.85 1021.40 1018.28 1015.93 1015.29 1015.15 1015.41 1015.53 1015.68 1016.10 1016.60 1017.17 1017.65 1018.31 1018.95 1019.57 1020.00 1020.45 1020.63 1020.49 1020.51 1020.50 1020.56 1020.50 1020.20 1020.01 1019.87 1019.71 1019.63 1019.30 1019.26 1019.22 1018.91
1023.62 1024.63 1025.30 1025.42 1025.52 1025.53 1025.28 1025.28 1025.39 1025.71 1026.02 1025.09 1021.83 1019.32 1016.92 1015.83 1015.46 1015.62 1015.86 1016.15 1016.37 1016.75 1017.40 1017.86 1018.40 1019.03 1019.74 1020.16 1020.51 1020.66 1020.49 1020.70 1020.70 1020.65 1020.67 1020.52 1020.35 1020.25 1020.06 1019.69 1019.83 1019.80 1019.49 1019.14
1023.62 1024.47 1025.88 1025.77 1025.54 1025.35 1025.69 1025.48 1025.54 1025.65 1025.83 1025.55 1023.69 1019.79 1017.25 1016.27 1015.79 1015.93 1016.26 1016.79 1017.19 1017.43 1017.87 1018.32 1018.69 1019.27 1019.89 1020.29 1020.51 1020.90 1020.75 1020.81 1020.84 1020.86 1020.83 1020.77 1020.75 1020.47 1020.21 1020.24 1020.18 1019.96 1019.65 1019.15
1023.61 1024.16 1025.13 1025.40 1025.49 1025.54 1025.34 1025.15 1025.11 1025.67 1026.12 1025.84 1024.32 1020.11 1017.51 1017.13 1016.79 1016.79 1016.96 1017.34 1017.90 1018.16 1018.33 1018.79 1019.15 1019.52 1020.04 1020.43 1020.74 1020.85 1021.13 1020.93 1020.79 1020.65 1020.70 1020.91 1020.89 1020.94 1021.12 1020.90 1020.64 1020.34 1019.88 1019.48
1023.48 1024.38 1024.90 1025.47 1026.05 1025.90 1025.52 1025.10 1025.05 1025.40 1025.62 1025.23 1024.33 1019.85 1017.53 1017.24 1017.10 1017.40 1017.76 1018.12 1018.62 1018.87 1018.91 1019.20 1019.52 1019.86 1020.11 1020.48 1020.84 1021.09 1021.27 1021.55 1021.39 1021.13 1021.03 1021.05 1021.21 1021.31 1021.28 1021.07 1020.95 1020.75 1020.35 1019.94
1023.38 1024.38 1024.78 1024.70 1024.40 1024.33 1025.21 1024.92 1025.00 1025.15 1025.43 1024.35 1022.38 1019.72 1017.86 1017.52 1017.57 1017.59 1017.99 1018.25 1018.95 1019.40 1019.51 1019.65 1019.91 1020.29 1020.54 1020.68 1020.96 1021.16 1021.31 1021.53 1021.58 1021.45 1021.31 1021.33 1021.39 1021.28 1021.40 1021.47 1021.24 1020.85 1020.55 1020.44
1023.70 1024.48 1024.81 1024.28 1024.08 1024.13 1024.11 1024.17 1024.54 1024.77 1023.54 1023.19 1020.99 1020.19 1017.34 1017.45 1017.74 1017.60 1017.55 1018.12 1018.83 1019.41 1019.86 1019.82 1020.26 1020.77 1020.89 1021.11 1021.30 1021.37 1021.42 1021.50 1021.49 1021.53 1021.48 1021.51 1021.54 1021.71 1021.70 1021.52 1021.24 1021.10 1020.84 1020.72
1024.07 1024.45 1025.01 1024.60 1024.20 1024.15 1023.85 1023.40 1023.56 1023.32 1023.12 1022.19 1020.96 1018.88 1017.02 1016.16 1016.88 1017.29 1017.63 1017.86 1018.29 1018.79 1019.36 1019.57 1020.23 1020.45 1020.97 1021.36 1021.56 1021.53 1021.59 1021.76 1021.64 1021.69 1021.65 1021.75 1021.92 1021.97 1022.03 1021.90 1021.73 1021.60 1021.41 1021.21
1024.19 1024.54 1025.09 1024.49 1023.98 1023.82 1022.90 1020.81 1020.99 1021.27 1020.89 1020.44 1019.78 1016.30 1015.79 1015.98 1016.26 1016.18 1016.36 1016.90 1017.37 1017.87 1018.31 1018.94 1019.46 1019.80 1020.21 1020.83 1021.28 1021.46 1021.46 1021.57 1021.74 1021.94 1022.16 1022.38 1022.30 1022.25 1022.09 1021.93 1021.98 1022.16 1022.25 1022.03
1023.58 1024.32 1024.82 1024.59 1023.74 1022.27 1018.94 1018.56 1018.70 1018.98 1018.26 1017.94 1016.84 1015.34 1015.38 1015.41 1015.42 1015.36 1015.46 1015.70 1016.26 1016.77 1017.30 1018.05 1018.58 1019.17 1019.90 1020.23 1020.65 1021.17 1021.43 1021.75 1022.01 1022.20 1022.28 1022.22 1022.35 1022.35 1022.16 1022.20 1022.22 1022.25 1022.31 1022.46
1023.72 1023.65 1024.23 1024.00 1023.01 1020.44 1017.98 1017.92 1017.86 1017.72 1015.86 1015.09 1015.27 1014.23 1014.80 1015.03 1015.31 1014.48 1014.15 1014.56 1015.00 1015.55 1016.30 1017.08 1017.77 1018.52 1019.25 1019.84 1020.26 1020.74 1021.34 1021.72 1022.01 1022.20 1022.45 1022.58 1022.57 1022.57 1022.55 1022.61 1022.64 1022.71 1022.62 1022.60
1024.26 1023.79 1023.77 1023.82 1022.57 1020.24 1017.18 1016.77 1016.82 1016.75 1015.12 1013.43 1013.84 1013.71 1014.25 1014.85 1015.12 1013.78 1013.01 1013.59 1014.55 1015.02 1015.72 1016.58 1017.45 1018.22 1019.04 1019.61 1020.10 1020.58 1021.13 1021.62 1021.96 1022.09 1022.38 1022.64 1022.86 1023.03 1023.05 1022.90 1022.94 1022.98 1023.08 1023.25
1024.43 1024.27 1023.64 1022.81 1021.24 1018.88 1016.71 1016.36 1016.69 1016.26 1014.25 1013.17 1013.22 1013.19 1013.60 1014.16 1013.92 1013.79 1013.64 1013.81 1014.53 1015.10 1015.79 1016.53 1017.36 1018.21 1018.87 1019.52 1020.00 1020.49 1020.79 1021.21 1021.44 1021.90 1022.19 1022.59 1022.96 1023.18 1023.35 1023.45 1023.48 1023.41 1023.45 1023.64
1021.56 1022.35 1022.46 1022.20 1020.81 1018.27 1015.46 1016.77 1016.07 1013.54 1013.18 1013.13 1013.06 1013.13 1013.49 1013.55 1013.68 1013.95 1014.12 1014.48 1015.17 1015.58 1016.16 1016.92 1017.72 1018.43 1018.91 1019.50 1020.10 1020.64 1020.70 1020.49 1021.09 1021.84 1022.39 1022.68 1022.83 1023.15 1023.42 1023.64 1023.72 1023.70 1023.68 1023.65
1019.41 1017.89 1018.59 1018.17 1016.70 1014.75 1014.44 1013.39 1013.31 1013.42 1013.51 1013.20 1012.95 1013.10 1013.39 1013.87 1013.95 1014.11 1014.43 1014.85 1015.39 1015.87 1016.45 1017.08 1018.03 1018.83 1018.98 1019.33 1019.76 1020.55 1020.20 1020.39 1021.01 1021.94 1022.69 1022.87 1023.10 1023.23 1023.18 1023.57 1023.94 1023.92 1023.93 1024.20
1017.51 1016.94 1016.81 1016.84 1015.02 1014.29 1013.85 1013.46 1013.42 1013.43 1013.50 1013.25 1013.20 1013.27 1013.49 1013.81 1013.92 1014.11 1014.48 1014.96 1015.40 1015.90 1016.64 1017.41 1018.19 1018.63 1018.99 1019.28 1019.68 1019.93 1020.24 1020.39 1020.92 1021.54 1022.20 1022.59 1023.10 1023.27 1023.26 1023.21 1023.33 1023.92 1024.01 1023.92
1015.80 1016.13 1016.07 1015.49 1014.36 1013.95 1013.29 1012.96 1012.80 1012.87 1012.97 1013.13 1013.27 1013.61 1013.61 1013.76 1013.98 1014.12 1014.48 1014.92 1015.21 1015.73 1016.46 1017.02 1017.62 1018.08 1018.31 1018.76 1019.38 1019.72 1019.88 1020.40 1020.92 1021.13 1021.47 1021.91 1022.23 1022.72 1023.05 1023.15 1023.22 1023.13 1023.00 1023.13
1014.55 1014.43 1014.45 1013.52 1012.62 1012.35 1012.27 1011.81 1012.09 1012.68 1012.80 1012.89 1013.51 1013.71 1013.80 1013.80 1013.98 1014.15 1014.48 1014.64 1015.01 1015.49 1016.09 1016.73 1017.07 1017.61 1017.80 1018.23 1018.59 1019.07 1019.36 1019.71 1020.35 1020.86 1021.04 1021.11 1021.50 1021.91 1022.33 1022.62 1022.63 1022.54 1022.61 1022.54
Thickness
5646 5636 5619 5624 5626 5629 5632 5630 5625 5633 5627 5614 5621 5620 5624 5624 5614 5602 5593 5583 5573 5567 5554 5543 5531 5520 5508 5498 5492 5489 5489 5491 5492 5496 5502 5508 5516 5524 5535 5545 5563 5580 5596 5602
5636 5616 5617 5620 5622 5621 5622 5625 5616 5622 5621 5613 5616 5616 5621 5624 5616 5606 5593 5579 5570 5560 5556 5544 5533 5520 5507 5496 5488 5486 5487 5488 5490 5494 5500 5502 5510 5520 5530 5539 5553 5573 5590 5592
5621 5611 5613 5615 5618 5613 5615 5612 5604 5599 5609 5618 5608 5617 5627 5625 5616 5607 5596 5587 5575 5566 5554 5543 5530 5519 5508 5496 5488 5486 5485 5484 5486 5489 5494 5500 5508 5516 5524 5535 5546 5557 5571 5579
5607 5605 5608 5609 5611 5605 5609 5599 5599 5601 5594 5597 5612 5583 5626 5619 5614 5608 5600 5588 5579 5568 5558 5545 5532 5518 5505 5496 5489 5485 5484 5484 5484 5486 5489 5495 5498 5504 5508 5522 5534 5545 5560 5569
5601 5600 5603 5605 5596 5597 5598 5592 5591 5596 5592 5590 5606 5581 5632 5624 5616 5608 5601 5592 5582 5571 5558 5544 5531 5516 5505 5495 5488 5484 5484 5483 5479 5480 5482 5486 5494 5500 5507 5518 5524 5534 5547 5561
5589 5590 5590 5588 5592 5591 5590 5591 5589 5594 5588 5553 5598 5583 5620 5624 5625 5616 5607 5597 5586 5574 5560 5548 5530 5515 5503 5494 5488 5483 5481 5481 5476 5474 5476 5483 5490 5502 5513 5513 5518 5528 5540 5551
5591 5587 5581 5582 5587 5587 5587 5586 5559 5573 5558 5567 5590 5571 5611 5638 5627 5620 5611 5603 5592 5578 5564 5550 5536 5515 5502 5494 5490 5486 5482 5480 5477 5472 5477 5482 5490 5499 5509 5514 5518 5524 5530 5543
5589 5588 5579 5575 5576 5578 5583 5579 5561 5570 5569 5569 5579 5585 5623 5631 5626 5619 5614 5605 5595 5581 5568 5555 5540 5517 5503 5499 5494 5489 5484 5481 5479 5476 5481 5487 5493 5500 5507 5512 5517 5519 5526 5536
5575 5581 5567 5566 5569 5569 5579 5572 5570 5544 5502 5534 5594 5617 5637 5632 5626 5617 5611 5608 5596 5588 5572 5561 5543 5525 5513 5507 5499 5493 5488 5485 5484 5482 5483 5489 5495 5499 5504 5508 5513 5516 5523 5531
5570 5575 5551 5557 5560 5562 5563 5567 5562 5541 5554 5556 5585 5600 5601 5622 5621 5617 5612 5604 5601 5592 5579 5566 5550 5534 5521 5513 5506 5500 5495 5489 5486 5488 5487 5491 5493 5497 5502 5508 5509 5512 5519 5528
5553 5565 5551 5548 5548 5563 5551 5550 5560 5561 5554 5542 5537 5586 5620 5631 5631 5623 5615 5606 5597 5589 5577 5566 5555 5541 5528 5520 5514 5506 5502 5496 5492 5490 5491 5491 5493 5499 5503 5505 5508 5513 5519 5528
5560 5561 5562 5559 5544 5547 5553 5567 5570 5545 5547 5529 5535 5566 5616 5613 5614 5615 5612 5608 5598 5590 5581 5569 5559 5548 5535 5527 5519 5514 5508 5505 5502 5501 5500 5498 5497 5498 5498 5502 5508 5514 5520 5525
5555 5553 5558 5560 5540 5535 5538 5554 5564 5550 5544 5540 5532 5583 5614 5615 5615 5607 5605 5599 5591 5586 5583 5574 5564 5554 5545 5533 5525 5520 5513 5507 5506 5505 5505 5504 5503 5503 5504 5508 5512 5515 5520 5524
5555 5529 5548 5569 5575 5558 5534 5539 5550 5547 5524 5551 5565 5582 5611 5598 5595 5597 5594 5583 5582 5574 5575 5572 5566 5558 5550 5541 5531 5524 5520 5515 5512 5511 5510 5508 5508 5509 5508 5508 5511 5517 5523 5525
5544 5527 5521 5529 5551 5558 5550 5542 5537 5535 5561 5573 5583 5568 5614 5589 5592 5599 5599 5597 5584 5570 5565 5563 5557 5551 5544 5544 5536 5531 5525 5520 5519 5517 5516 5515 5514 5511 5510 5512 5515 5517 5521 5524
5532 5532 5512 5518 5519 5526 5527 5543 5539 5550 5545 5550 5564 5587 5613 5623 5609 5589 5586 5585 5587 5583 5574 5568 5563 5559 5551 5541 5541 5537 5528 5525 5523 5520 5518 5515 5512 5511 5511 5513 5515 5516 5517 5519
5517 5521 5520 5554 5509 5500 5541 5548 5555 5550 5556 5564 5564 5613 5619 5615 5609 5608 5609 5597 5591 5594 5594 5580 5574 5567 5560 5554 5548 5543 5539 5535 5531 5523 5520 5515 5513 5512 5513 5515 5515 5513 5512 5515
5521 5517 5512 5512 5515 5536 5588 5582 5577 5568 5571 5575 5590 5602 5609 5612 5613 5611 5611 5611 5603 5601 5600 5592 5583 5577 5567 5561 5555 5551 5545 5540 5535 5531 5528 5525 5522 5519 5518 5515 5514 5514 5514 5514
5510 5518 5514 5523 5518 5554 5599 5565 5565 5568 5607 5598 5597 5610 5605 5607 5605 5612 5614 5612 5612 5606 5600 5593 5586 5580 5572 5566 5560 5555 5548 5543 5539 5536 5531 5527 5526 5523 5521 5519 5516 5514 5514 5514
5496 5501 5511 5495 5513 5521 5590 5581 5574 5579 5589 5617 5605 5607 5604 5594 5594 5609 5626 5613 5608 5606 5599 5591 5585 5578 5571 5567 5562 5557 5551 5545 5540 5538 5535 5531 5526 5523 5522 5521 5519 5517 5515 5513
5475 5480 5491 5501 5521 5536 5575 5567 5563 5573 5604 5606 5606 5604 5600 5594 5605 5606 5607 5607 5601 5596 5592 5586 5580 5575 5570 5564 5560 5557 5553 5549 5544 5539 5536 5532 5528 5525 5523 5520 5518 5517 5515 5512
5498 5493 5486 5497 5507 5526 5563 5550 5571 5598 5595 5597 5597 5599 5597 5595 5602 5600 5599 5592 5588 5585 5582 5578 5572 5568 5564 5560 5556 5552 5553 5553 5545 5538 5532 5528 5526 5525 5522 5519 5518 5516 5515 5515
5513 5536 5517 5529 5544 5566 5556 5586 5576 5576 5584 5590 5594 5591 5590 5585 5587 5593 5589 5586 5582 5578 5574 5571 5566 5558 5553 5553 5553 5549 5551 5549 5543 5536 5530 5526 5523 5522 5522 5517 5514 5514 5513 5509
5507 5521 5513 5522 5550 5556 5554 5562 5567 5570 5569 5576 5580 5583 5578 5580 5580 5583 5583 5581 5577 5572 5564 5558 5556 5553 5551 5547 5547 5547 5544 5542 5539 5535 5529 5525 5521 5518 5516 5518 5516 5510 5506 5505
5504 5512 5502 5509 5536 5546 5553 5555 5565 5565 5560 5565 5569 5570 5570 5572 5573 5576 5575 5571 5571 5569 5558 5555 5554 5551 5551 5545 5543 5539 5538 5536 5532 5531 5529 5525 5523 5519 5514 5512 5511 5511 5510 5506
5500 5510 5522 5536 5550 5562 5568 5569 5562 5556 5561 5563 5558 5556 5557 5562 5564 5568 5564 5563 5562 5558 5552 5550 5550 5545 5544 5543 5542 5538 5535 5533 5529 5526 5524 5525 5521 5517 5513 5510 5508 5509 5507 5506